Tracking 19219 objects as of 19-Jul-2018
HD Live streaming from Space Station
objects crossing your sky now

FENGYUN 1C DEB

Track FENGYUN 1C DEB now!
10-day predictions


NORAD ID: 37011
Int'l Code: 1999-025ECT
Perigee: 676.5 km
Apogee: 762.8 km
Inclination: 98.9 °
Period: 99.0 minutes
Semi major axis: 7090 km
RCS: 0.002 m2 (small)
Launch date: May 10, 1999
Source: People's Republic of China (PRC)
Launch site: Taiyaun Space Center, China (TSC)

Note: This is SATELLITE DEBRIS
aabbcc
Your satellite tracking list
Your tracking list is empty




NASA's NSSDC Master Catalog

Two Line Element Set (TLE):
1 37011U 99025ECT 18200.32128443  .00001701  00000-0  40627-3 0  9996
2 37011  98.9330  41.7799 0060868 242.3831 117.1174 14.54020189441571
Source of the keplerian elements: AFSPC